[[{"header":{"parameterUnit":"m.s-1","parameterCategory":1,"la1":30.2991,"la2":30.254,"lo1":-89.0895,"lo2":-89.0444,"dy":0.0017,"dx":0.0017,"nx":28,"ny":28,"refTime":"2023-11-13T03:00:00:Z","depth":0,"parameterNumber":2,"parameterNumberName":"U-component_of_WINDS"},"data":[0,0,0,0,0,0,0,0,0,0,0,0,0,0,0,0,0,0,0,0,0,0,0,0,0,0,0,0,0,0,0,0,0,0,0,0,0,0,0,0,0,0,0,0,0,0,0,0,0,0,0,0,0,0,0,0,0,0,-3.9314,-3.9314,0,-3.9344,-3.9345,-3.9345,-3.9235,-3.9231,-3.9228,-3.9225,-3.9257,-3.9261,-3.9265,0,0,0,0,0,0,0,0,0,0,0,0,0,-3.916,-3.9163,-3.9313,-3.9314,-3.9314,-3.9344,-3.9345,-3.9345,-3.9235,-3.9231,-3.9227,-3.9224,-3.9256,-3.9261,-3.9265,0,0,0,0,0,0,0,0,0,0,0,0,0,-3.9212,-3.9164,-3.9313,-3.9263,-3.9259,-3.9344,-3.9345,-3.9345,-3.9236,-3.9231,-3.9226,-3.9222,-3.9254,-3.926,-3.9266,-3.9402,0,0,-3.9284,-3.9287,0,0,0,0,0,0,0,0,-3.9209,-3.9218,-3.927,-3.9267,-3.9262,-3.9281,-3.9302,-3.9364,-3.9237,-3.9245,-3.9225,-3.9219,-3.9269,-3.9274,-3.929,-3.9403,-3.9404,-3.9285,-3.9288,-3.9291,-3.9292,0,0,0,0,0,0,0,-3.9206,-3.9216,-3.9326,-3.9271,-3.9266,-3.9239,-3.9241,-3.9313,-3.9284,-3.9244,-3.9236,-3.9241,-3.9266,-3.9285,-3.929,-3.9405,-3.9284,-3.929,-3.9293,-3.9296,-3.9631,-3.9636,0,0,0,0,0,0,-3.9209,-3.9214,-3.9325,-3.9327,-3.9223,-3.9246,-3.9248,-3.928,-3.9283,-3.9279,-3.9245,-3.9236,-3.9277,-3.9283,-3.9291,-3.945,-3.9291,-3.9296,-3.93,-3.9626,-3.9632,-3.9638,0,0,0,0,0,0,-3.9206,-3.922,-3.9323,-3.9268,-3.9279,-3.9254,-3.929,-3.9283,-3.9301,-3.9284,-3.9279,-3.927,-3.9273,-3.9283,-3.9375,-3.945,-3.9299,-3.9304,-3.9619,-3.9628,-3.9635,-3.977,0,0,0,0,0,0,-3.9202,-3.9219,-3.9271,-3.927,-3.9283,-3.9407,-3.9295,-3.9287,-3.9312,-3.93,-3.9306,-3.9302,-3.927,-3.9367,-3.9381,-3.9455,-3.9309,-3.9613,-3.9623,-3.9633,-3.9759,-3.9782,-3.9801,0,0,0,0,0,-3.9197,-3.9307,-3.9274,-3.9288,-3.9346,-3.9412,-3.9419,-3.938,-3.9318,-3.937,-3.9359,-3.9302,-3.9439,-3.9377,-3.9392,-3.9469,-3.9608,-3.962,-3.9632,-3.9749,-3.9777,-3.9801,0,0,0,0,0,0,-3.9317,-3.9306,-3.9269,-3.9382,-3.9399,-3.9393,-3.9457,-3.9411,-3.9445,-3.9432,-3.9383,-3.9385,-3.9486,-3.9487,-3.9418,-3.9601,-3.9513,-3.9529,-3.9597,-3.9624,-3.9644,-3.9643,-3.9314,0,0,0,0,0,-3.9357,-3.9412,-3.9399,-3.95,-3.951,-3.9483,-3.951,-3.9478,-3.9493,-3.95,-3.9495,-3.9512,-3.9559,-3.9591,-3.9633,-3.9758,-3.9758,-3.9819,-3.984,-3.9857,-3.9872,-3.9938,-3.9965,-3.9678,-3.9678,-3.9677,0,0,-3.944,-3.9441,-3.9478,-3.9525,-3.9533,-3.9591,-3.9489,-3.9554,-3.9596,-3.9509,-3.9597,-3.9594,-3.961,-3.9719,-3.9767,-3.9723,-3.9951,-3.9873,-3.9887,-3.9892,-3.9954,-3.9981,-4.0005,-3.9686,-3.9684,-3.9683,0,0,-3.962,-3.9626,-3.9712,-3.9723,-3.9738,-3.9718,-3.9739,-3.974,-3.9735,-3.9822,-3.9758,-3.9808,-3.9889,-3.9903,-3.9921,-4.0108,-4.0057,-4.0123,-4.0234,-4.03,-4.0322,-4.0342,-4.0409,-4.0434,-4.0137,-4.0137,-4.0137,0,-3.9722,-3.9806,-3.9761,-3.9831,-3.9854,-3.9777,-3.9864,-3.9877,-3.9905,-3.9923,-3.9872,-3.9973,-3.9978,-4.009,-4.0136,-4.0153,-4.0175,-4.0122,-4.0323,-4.0342,-4.036,-4.0423,-4.0449,-4.0145,-4.0144,-4.0143,-4.0143,0,-3.993,-3.9989,-4.0056,-4.0086,-4.0115,-4.0193,-4.0161,-4.0197,-4.0163,-4.0149,-4.0238,-4.0242,-4.0284,-4.0308,-4.0275,-4.0415,-4.0387,-4.0331,-4.0241,-4.0396,-4.0455,-4.0479,-4.0156,-4.0154,-4.0151,-4.0149,0,0,-4.0187,-4.0191,-4.0217,-4.0229,-4.024,-4.0285,-4.036,-4.04,-4.0432,-4.0454,-4.0516,-4.0587,-4.0535,-4.0555,-4.0523,-4.0581,-4.0729,-4.0517,-4.0516,-4.0557,-4.0885,-4.0928,-4.0957,-4.0695,-4.07,-4.0703,-4.0884,0,-4.0365,-4.0492,-4.0455,-4.0583,-4.0637,-4.0566,-4.0631,-4.0645,-4.0634,-4.0679,-4.0666,-4.0718,-4.0645,-4.0656,-4.071,-4.07,-4.0794,-4.0686,-4.0753,-4.0756,-4.0752,-4.0987,-4.1033,-4.1204,-4.0906,-4.091,-4.0913,0,-4.059,-4.0621,-4.0755,-4.0757,-4.0778,-4.0837,-4.0872,-4.0915,-4.093,-4.0918,-4.0941,-4.0898,-4.0971,-4.0881,-4.0982,-4.0909,-4.0934,-4.0933,-4.0939,-4.0944,-4.0844,-4.1,-4.1257,-4.1283,-4.0949,-4.0946,-4.0943,0,-4.0765,-4.084,-4.093,-4.0943,-4.0948,-4.0991,-4.0995,-4.1005,-4.1032,-4.1062,-4.1079,-4.1118,-4.1139,-4.117,-4.1138,-4.1075,-4.1244,-4.1151,-4.1237,-4.1238,-4.1276,-4.1275,-4.1542,-4.1292,-4.1291,-4.1291,-4.129,0,-4.0968,-4.1053,-4.1009,-4.1065,-4.1158,-4.1114,-4.1207,-4.1203,-4.1212,-4.1265,-4.1206,-4.1257,-4.1212,-4.1259,-4.1235,-4.1323,-4.1332,-4.1325,-4.1318,-4.1331,-4.1332,-4.1347,-4.1335,-4.1297,-4.1296,-4.1295,-4.1294,0,-4.118,-4.1154,-4.1248,-4.1244,-4.1246,-4.1315,-4.1312,-4.1363,-4.1348,-4.1416,-4.143,-4.1406,-4.1459,-4.143,-4.1485,-4.1468,-4.1582,-4.1558,-4.1578,-4.1572,-4.1659,-4.1652,-4.1946,-4.1983,-4.1708,-4.1711,-4.1713,0,-4.1312,-4.1376,-4.1379,-4.1411,-4.1419,-4.1471,-4.1498,-4.1457,-4.1488,-4.151,-4.1559,-4.1606,-4.1642,-4.173,-4.1718,-4.176,-4.1737,-4.1837,-4.1743,-4.1755,-4.174,-4.1737,-4.1743,-4.1857,-4.186,-4.1863,-4.1865,0,-4.1549,-4.1533,-4.1574,-4.1612,-4.1647,-4.1674,-4.1697,-4.1726,-4.1686,-4.1724,-4.1777,-4.1805,-4.1861,-4.1909,-4.1945,-4.1949,-4.1901,-4.1894,-4.1916,-4.1931,-4.194,-4.1937,-4.163,-4.1888,-4.1886,-4.1884,-4.1883,-4.1882,-4.1725,-4.1779,-4.179,-4.1838,-4.1851,-4.1874,-4.1922,-4.1913,-4.1957,-4.1999,-4.1972,-4.2035,-4.2048,-4.2091,-4.2102,-4.2151,-4.211,-4.2142,-4.2151,-4.2159,-4.2172,-4.1932,-4.2157,-4.2156,-4.2155,-4.2155,-4.2154,0,-4.1959,-4.1963,-4.2008,-4.2042,-4.2081,-4.2031,-4.2054,-4.2089,-4.2146,-4.2162,-4.2198,-4.226,-4.2307,-4.2299,-4.2341,-4.2382,-4.2361,-4.2395,-4.2392,-4.2394,-4.2205,-4.2182,-4.2411,-4.2411,-4.2411,-4.2411,-4.2411,-4.2411,-4.2086,-4.2174,-4.216,-4.2253,-4.2256,-4.2318,-4.2335,-4.2356,-4.2368,-4.244,-4.2479,-4.2473,-4.2479,-4.2522,-4.2563,-4.2559,-4.2578,-4.262,-4.2608,-4.2432,-4.2407,-4.2383,-4.2361,-4.2624,-4.2624,-4.2793,-4.2795,-4.2796]},{"header":{"parameterUnit":"m.s-1","parameterCategory":1,"la1":30.2991,"la2":30.254,"lo1":-89.0895,"lo2":-89.0444,"dy":0.0017,"dx":0.0017,"nx":28,"ny":28,"refTime":"2023-11-13T03:00:00:Z","depth":0,"parameterNumber":3,"parameterNumberName":"V-component_of_WINDS"},"data":[0,0,0,0,0,0,0,0,0,0,0,0,0,0,0,0,0,0,0,0,0,0,0,0,0,0,0,0,0,0,0,0,0,0,0,0,0,0,0,0,0,0,0,0,0,0,0,0,0,0,0,0,0,0,0,0,0,0,-4.2001,-4.2001,0,-4.1995,-4.1995,-4.1995,-4.1924,-4.1923,-4.1921,-4.1919,-4.1914,-4.1915,-4.1917,0,0,0,0,0,0,0,0,0,0,0,0,0,-4.1951,-4.1952,-4.2001,-4.2001,-4.2001,-4.1995,-4.1995,-4.1995,-4.1925,-4.1923,-4.192,-4.1918,-4.1913,-4.1915,-4.1917,0,0,0,0,0,0,0,0,0,0,0,0,0,-4.1962,-4.1953,-4.2001,-4.1965,-4.1962,-4.1995,-4.1995,-4.1995,-4.1925,-4.1923,-4.192,-4.1917,-4.1913,-4.1915,-4.1917,-4.1985,0,0,-4.1924,-4.1925,0,0,0,0,0,0,0,0,-4.1961,-4.1964,-4.197,-4.1968,-4.1964,-4.1958,-4.1975,-4.1992,-4.1926,-4.1939,-4.1919,-4.1916,-4.1931,-4.1931,-4.1936,-4.1984,-4.1984,-4.1924,-4.1926,-4.1927,-4.1927,0,0,0,0,0,0,0,-4.196,-4.1963,-4.1999,-4.1971,-4.1967,-4.1949,-4.1948,-4.1978,-4.195,-4.1938,-4.1933,-4.1933,-4.1928,-4.1934,-4.1935,-4.1984,-4.1924,-4.1926,-4.1928,-4.1929,-4.2086,-4.2088,0,0,0,0,0,0,-4.1965,-4.1963,-4.1999,-4.1998,-4.1956,-4.1952,-4.1951,-4.1963,-4.1949,-4.1945,-4.1935,-4.193,-4.1932,-4.1933,-4.1935,-4.2012,-4.1927,-4.1929,-4.193,-4.2083,-4.2086,-4.2089,0,0,0,0,0,0,-4.1964,-4.1969,-4.1999,-4.1979,-4.1982,-4.1956,-4.197,-4.1964,-4.1969,-4.1947,-4.1942,-4.1946,-4.1929,-4.1932,-4.1972,-4.2011,-4.193,-4.1932,-4.208,-4.2084,-4.2088,-4.2167,0,0,0,0,0,0,-4.1963,-4.1969,-4.1994,-4.1981,-4.1983,-4.2037,-4.1972,-4.1966,-4.1973,-4.1966,-4.1956,-4.1952,-4.1928,-4.1969,-4.1975,-4.2012,-4.1934,-4.2076,-4.2082,-4.2086,-4.2161,-4.2173,-4.2184,0,0,0,0,0,-4.1961,-4.2017,-4.1996,-4.2001,-4.2015,-4.2039,-4.2041,-4.2011,-4.1977,-4.2002,-4.1988,-4.1952,-4.2006,-4.1974,-4.1979,-4.2018,-4.2073,-4.208,-4.2086,-4.2156,-4.2171,-4.2184,0,0,0,0,0,0,-4.2037,-4.2015,-4.1991,-4.2044,-4.2044,-4.2027,-4.2058,-4.2029,-4.2039,-4.2031,-4.1994,-4.1993,-4.2039,-4.2033,-4.1998,-4.2082,-4.2033,-4.2041,-4.2084,-4.2099,-4.211,-4.211,-4.1936,0,0,0,0,0,-4.206,-4.2082,-4.2061,-4.211,-4.2111,-4.2085,-4.2095,-4.2072,-4.207,-4.207,-4.2058,-4.2058,-4.2075,-4.2086,-4.2101,-4.216,-4.2156,-4.2189,-4.2201,-4.221,-4.2217,-4.2247,-4.2261,-4.211,-4.211,-4.211,0,0,-4.2107,-4.2098,-4.2114,-4.2125,-4.2122,-4.2145,-4.2086,-4.2113,-4.2129,-4.2074,-4.2111,-4.2103,-4.21,-4.215,-4.2171,-4.2146,-4.2258,-4.2218,-4.2226,-4.2228,-4.2255,-4.2269,-4.2282,-4.2114,-4.2114,-4.2113,0,0,-4.2205,-4.2201,-4.2241,-4.2239,-4.2235,-4.2217,-4.2226,-4.2214,-4.2206,-4.2243,-4.2201,-4.222,-4.225,-4.2249,-4.2253,-4.2349,-4.2317,-4.2355,-4.2416,-4.2445,-4.2457,-4.2467,-4.25,-4.2513,-4.2362,-4.2362,-4.2362,0,-4.2265,-4.2298,-4.2265,-4.2294,-4.23,-4.225,-4.2289,-4.2289,-4.2291,-4.2295,-4.2267,-4.2302,-4.2297,-4.2345,-4.2369,-4.2374,-4.2383,-4.2356,-4.2457,-4.2468,-4.2477,-4.2508,-4.2521,-4.2367,-4.2366,-4.2366,-4.2365,0,-4.2371,-4.2394,-4.2427,-4.2428,-4.2437,-4.2472,-4.2443,-4.2457,-4.2433,-4.2418,-4.2455,-4.2447,-4.2458,-4.2468,-4.2445,-4.2512,-4.2497,-4.2464,-4.2414,-4.2496,-4.2525,-4.2537,-4.2373,-4.2372,-4.237,-4.2369,0,0,-4.2517,-4.2499,-4.2511,-4.251,-4.2502,-4.2519,-4.2551,-4.2561,-4.2572,-4.2575,-4.26,-4.2626,-4.2594,-4.2599,-4.2575,-4.2601,-4.2676,-4.2564,-4.2564,-4.2585,-4.2749,-4.2773,-4.2788,-4.2655,-4.2657,-4.2659,-4.2749,0,-4.2611,-4.2663,-4.2634,-4.269,-4.2711,-4.2663,-4.2691,-4.2688,-4.2675,-4.269,-4.2675,-4.2694,-4.2652,-4.2654,-4.2677,-4.2662,-4.2709,-4.2656,-4.2678,-4.2679,-4.2679,-4.2803,-4.2829,-4.2914,-4.276,-4.2762,-4.2763,0,-4.2727,-4.2733,-4.2792,-4.2778,-4.2785,-4.281,-4.2816,-4.2832,-4.2828,-4.2816,-4.282,-4.279,-4.282,-4.2771,-4.2811,-4.2775,-4.2783,-4.2777,-4.2779,-4.278,-4.2726,-4.2806,-4.2941,-4.2953,-4.2781,-4.278,-4.2778,0,-4.2826,-4.2849,-4.2887,-4.2888,-4.2873,-4.2891,-4.2886,-4.2879,-4.2887,-4.2892,-4.2896,-4.2906,-4.2911,-4.2919,-4.2892,-4.2859,-4.2935,-4.2884,-4.2926,-4.2926,-4.2943,-4.2943,-4.3081,-4.295,-4.295,-4.2949,-4.2949,0,-4.2933,-4.2971,-4.2931,-4.2954,-4.2994,-4.2959,-4.3,-4.299,-4.2984,-4.3004,-4.2964,-4.2984,-4.2947,-4.2963,-4.2943,-4.2978,-4.2981,-4.2972,-4.2966,-4.2975,-4.2976,-4.2979,-4.2972,-4.2953,-4.2952,-4.2951,-4.2951,0,-4.3051,-4.3026,-4.3063,-4.3045,-4.3042,-4.3072,-4.3057,-4.3077,-4.306,-4.3086,-4.309,-4.3064,-4.3081,-4.3055,-4.3069,-4.3055,-4.3104,-4.3089,-4.3105,-4.3101,-4.3143,-4.3139,-4.3287,-4.3304,-4.3164,-4.3165,-4.3166,0,-4.3121,-4.3148,-4.3133,-4.3143,-4.3139,-4.3156,-4.3163,-4.313,-4.3139,-4.3136,-4.3156,-4.3169,-4.3178,-4.3207,-4.3189,-4.32,-4.3184,-4.3235,-4.3186,-4.3193,-4.3184,-4.3182,-4.3184,-4.3245,-4.3247,-4.3249,-4.325,0,-4.3247,-4.3232,-4.3244,-4.325,-4.3259,-4.3263,-4.3264,-4.3275,-4.324,-4.3252,-4.3268,-4.3274,-4.3288,-4.3301,-4.3307,-4.3301,-4.327,-4.3265,-4.3275,-4.3285,-4.3292,-4.3288,-4.3132,-4.3262,-4.3261,-4.326,-4.3259,-4.3259,-4.3342,-4.3363,-4.3355,-4.3368,-4.3365,-4.3367,-4.3385,-4.337,-4.3382,-4.339,-4.337,-4.339,-4.3384,-4.3388,-4.3386,-4.3402,-4.3379,-4.3394,-4.3398,-4.3402,-4.3408,-4.329,-4.3403,-4.3403,-4.3402,-4.3402,-4.3402,0,-4.3464,-4.3456,-4.3469,-4.3471,-4.3481,-4.345,-4.3449,-4.346,-4.3478,-4.3475,-4.3484,-4.3502,-4.3514,-4.3497,-4.3507,-4.3523,-4.3508,-4.3526,-4.3524,-4.3523,-4.3428,-4.3418,-4.3537,-4.3537,-4.3537,-4.3537,-4.3537,-4.3537,-4.3529,-4.3563,-4.3548,-4.358,-4.3572,-4.3591,-4.3593,-4.3594,-4.3591,-4.3612,-4.3622,-4.361,-4.3602,-4.361,-4.362,-4.3615,-4.362,-4.3642,-4.3632,-4.3543,-4.353,-4.3517,-4.3508,-4.3644,-4.3644,-4.3726,-4.3726,-4.3727]}]]